QPF
0.28 0.19 0.11 0.05 0.04 0.04 0.04 0.04 0.04 0.04 0.07 0.11 0.09 0.04 0.05 0.11 0.16 0.10 0.06 0.05 0.04 0.04 0.04 0.04 0.06 0.07 0.13 0.13 0.12 0.13 0.10 0.08 0.11 0.13 0.16 0.16 0.16 0.14 0.12 0.17 0.13 0.08 0.08
0.19 0.11 0.11 0.08 0.06 0.06 0.06 0.05 0.04 0.06 0.07 0.08 0.08 0.06 0.05 0.08 0.09 0.08 0.06 0.05 0.04 0.03 0.03 0.04 0.07 0.08 0.11 0.11 0.09 0.10 0.09 0.07 0.10 0.11 0.12 0.14 0.14 0.12 0.11 0.12 0.12 0.08 0.08
0.12 0.07 0.08 0.07 0.06 0.07 0.09 0.10 0.07 0.06 0.07 0.07 0.09 0.07 0.04 0.04 0.05 0.04 0.04 0.05 0.04 0.03 0.04 0.06 0.06 0.07 0.07 0.07 0.08 0.06 0.07 0.10 0.13 0.14 0.11 0.06 0.08 0.11 0.11 0.11 0.10 0.09 0.09
0.13 0.09 0.07 0.05 0.03 0.04 0.06 0.07 0.08 0.07 0.06 0.06 0.06 0.05 0.03 0.02 0.03 0.04 0.04 0.04 0.05 0.04 0.06 0.07 0.06 0.08 0.08 0.07 0.07 0.06 0.07 0.12 0.19 0.15 0.08 0.04 0.04 0.08 0.10 0.11 0.09 0.08 0.11
0.10 0.08 0.06 0.04 0.03 0.04 0.04 0.04 0.06 0.07 0.07 0.08 0.06 0.05 0.04 0.03 0.03 0.03 0.03 0.03 0.03 0.02 0.03 0.03 0.03 0.05 0.09 0.09 0.10 0.09 0.09 0.16 0.17 0.12 0.06 0.04 0.05 0.08 0.08 0.09 0.09 0.09 0.09
0.05 0.05 0.05 0.05 0.08 0.10 0.09 0.05 0.04 0.07 0.09 0.11 0.11 0.07 0.05 0.03 0.03 0.03 0.03 0.02 0.02 0.02 0.02 0.03 0.02 0.03 0.06 0.10 0.11 0.11 0.14 0.20 0.12 0.09 0.07 0.06 0.05 0.06 0.07 0.07 0.08 0.10 0.10
0.03 0.04 0.04 0.09 0.13 0.12 0.06 0.03 0.04 0.08 0.09 0.10 0.11 0.09 0.06 0.05 0.05 0.05 0.05 0.04 0.04 0.03 0.03 0.04 0.03 0.04 0.05 0.06 0.10 0.14 0.19 0.18 0.10 0.06 0.06 0.04 0.03 0.05 0.06 0.07 0.08 0.11 0.15
0.03 0.03 0.04 0.08 0.14 0.12 0.06 0.04 0.04 0.07 0.10 0.10 0.10 0.09 0.08 0.07 0.05 0.04 0.05 0.06 0.05 0.05 0.05 0.05 0.04 0.04 0.04 0.07 0.14 0.18 0.15 0.12 0.09 0.07 0.05 0.03 0.06 0.05 0.06 0.06 0.08 0.10 0.10
0.02 0.02 0.03 0.06 0.11 0.14 0.12 0.08 0.06 0.06 0.06 0.08 0.09 0.09 0.07 0.07 0.06 0.06 0.06 0.08 0.07 0.06 0.06 0.07 0.09 0.09 0.08 0.11 0.19 0.17 0.14 0.12 0.10 0.08 0.07 0.04 0.05 0.06 0.08 0.07 0.07 0.06 0.07
0.02 0.02 0.02 0.04 0.05 0.07 0.09 0.08 0.07 0.07 0.07 0.07 0.10 0.09 0.09 0.10 0.09 0.08 0.07 0.08 0.07 0.08 0.07 0.10 0.12 0.11 0.12 0.18 0.21 0.17 0.14 0.11 0.09 0.10 0.08 0.04 0.05 0.07 0.09 0.08 0.06 0.05 0.06
0.02 0.02 0.02 0.03 0.05 0.04 0.05 0.06 0.06 0.06 0.07 0.06 0.08 0.08 0.11 0.12 0.07 0.08 0.08 0.08 0.08 0.08 0.10 0.14 0.13 0.11 0.13 0.16 0.18 0.20 0.14 0.08 0.11 0.14 0.07 0.04 0.04 0.07 0.09 0.08 0.06 0.05 0.05
0.02 0.03 0.03 0.05 0.09 0.08 0.06 0.06 0.06 0.05 0.06 0.05 0.05 0.05 0.10 0.15 0.11 0.09 0.10 0.11 0.12 0.12 0.12 0.15 0.13 0.10 0.10 0.09 0.12 0.15 0.11 0.07 0.09 0.11 0.08 0.04 0.04 0.06 0.09 0.08 0.07 0.07 0.07
0.02 0.04 0.05 0.07 0.12 0.14 0.12 0.10 0.08 0.07 0.06 0.06 0.05 0.05 0.07 0.19 0.25 0.20 0.12 0.12 0.14 0.13 0.13 0.14 0.11 0.07 0.05 0.06 0.07 0.11 0.12 0.12 0.08 0.09 0.09 0.07 0.04 0.08 0.12 0.13 0.13 0.11 0.09
0.02 0.04 0.06 0.07 0.10 0.12 0.13 0.10 0.07 0.05 0.05 0.05 0.07 0.04 0.04 0.10 0.17 0.19 0.14 0.12 0.12 0.14 0.15 0.13 0.10 0.07 0.09 0.09 0.10 0.12 0.12 0.15 0.07 0.06 0.06 0.05 0.06 0.10 0.13 0.16 0.15 0.12 0.10
0.01 0.02 0.05 0.06 0.08 0.09 0.08 0.07 0.06 0.04 0.04 0.05 0.04 0.03 0.03 0.04 0.06 0.10 0.12 0.11 0.12 0.16 0.19 0.17 0.13 0.12 0.16 0.14 0.10 0.10 0.11 0.09 0.07 0.07 0.07 0.06 0.04 0.05 0.10 0.14 0.14 0.11 0.08
0.02 0.02 0.02 0.04 0.05 0.06 0.06 0.06 0.05 0.05 0.05 0.04 0.03 0.04 0.03 0.03 0.03 0.05 0.08 0.09 0.11 0.15 0.17 0.20 0.21 0.21 0.20 0.14 0.10 0.09 0.11 0.10 0.11 0.12 0.10 0.07 0.08 0.08 0.08 0.10 0.10 0.09 0.08
0.02 0.01 0.01 0.02 0.04 0.04 0.05 0.06 0.04 0.04 0.05 0.04 0.05 0.06 0.04 0.03 0.04 0.05 0.06 0.07 0.11 0.11 0.11 0.13 0.16 0.16 0.15 0.15 0.12 0.09 0.12 0.10 0.11 0.14 0.09 0.09 0.09 0.08 0.07 0.07 0.07 0.08 0.07
0.01 0.01 0.01 0.01 0.03 0.03 0.03 0.04 0.03 0.03 0.04 0.05 0.05 0.05 0.04 0.05 0.05 0.04 0.05 0.05 0.06 0.08 0.08 0.10 0.13 0.12 0.13 0.13 0.13 0.12 0.14 0.13 0.10 0.14 0.11 0.10 0.10 0.08 0.09 0.08 0.06 0.06 0.06
0.02 0.02 0.02 0.01 0.02 0.02 0.02 0.03 0.03 0.03 0.03 0.03 0.03 0.04 0.04 0.04 0.03 0.03 0.03 0.04 0.03 0.04 0.06 0.10 0.14 0.14 0.15 0.14 0.14 0.14 0.15 0.17 0.14 0.13 0.14 0.12 0.10 0.09 0.09 0.11 0.09 0.06 0.07
0.01 0.01 0.01 0.01 0.01 0.01 0.01 0.03 0.02 0.02 0.02 0.02 0.03 0.03 0.02 0.02 0.02 0.02 0.03 0.04 0.04 0.03 0.04 0.06 0.12 0.12 0.12 0.13 0.14 0.15 0.17 0.17 0.17 0.14 0.13 0.15 0.13 0.10 0.09 0.11 0.09 0.07 0.06
0.01 0.01 0.01 0.01 0.01 0.01 0.01 0.01 0.01 0.01 0.02 0.02 0.02 0.02 0.02 0.02 0.01 0.02 0.03 0.05 0.05 0.04 0.04 0.05 0.08 0.11 0.13 0.11 0.10 0.12 0.15 0.14 0.14 0.14 0.14 0.16 0.17 0.13 0.11 0.10 0.08 0.07 0.06
0.00 0.01 0.01 0.02 0.03 0.02 0.01 0.01 0.01 0.01 0.02 0.03 0.01 0.01 0.01 0.01 0.01 0.01 0.03 0.03 0.05 0.05 0.04 0.05 0.06 0.07 0.09 0.09 0.09 0.09 0.10 0.12 0.13 0.10 0.11 0.16 0.18 0.16 0.16 0.15 0.11 0.10 0.07
0.00 0.01 0.02 0.04 0.04 0.03 0.02 0.01 0.01 0.01 0.02 0.03 0.01 0.01 0.00 0.01 0.01 0.02 0.02 0.03 0.03 0.05 0.06 0.06 0.06 0.06 0.05 0.05 0.05 0.05 0.05 0.06 0.07 0.07 0.08 0.11 0.11 0.15 0.17 0.20 0.15 0.08 0.06
0.01 0.01 0.02 0.02 0.01 0.01 0.01 0.01 0.01 0.01 0.00 0.01 0.01 0.01 0.01 0.01 0.01 0.02 0.03 0.03 0.02 0.02 0.03 0.03 0.04 0.06 0.05 0.04 0.03 0.03 0.02 0.03 0.04 0.04 0.05 0.06 0.07 0.10 0.14 0.15 0.13 0.08 0.05
0.01 0.01 0.01 0.01 0.01 0.00 0.00 0.00 0.00 0.00 0.01 0.01 0.01 0.01 0.01 0.01 0.00 0.01 0.03 0.03 0.02 0.01 0.01 0.01 0.02 0.03 0.04 0.03 0.02 0.02 0.02 0.02 0.04 0.04 0.05 0.05 0.05 0.06 0.08 0.10 0.10 0.10 0.08
0.03 0.03 0.02 0.01 0.01 0.01 0.01 0.01 0.01 0.01 0.01 0.01 0.01 0.01 0.01 0.01 0.00 0.01 0.02 0.03 0.02 0.01 0.01 0.01 0.02 0.02 0.02 0.02 0.02 0.02 0.02 0.02 0.02 0.03 0.06 0.04 0.03 0.04 0.05 0.05 0.07 0.07 0.06
MSLP
1005.03 1004.30 1003.77 1003.48 1003.44 1003.60 1003.88 1004.20 1004.51 1004.77 1004.99 1005.23 1005.52 1005.90 1006.38 1006.95 1007.57 1008.18 1008.73 1009.20 1009.60 1009.93 1010.24 1010.57 1010.92 1011.32 1011.73 1012.11 1012.44 1012.68 1012.82 1012.89 1012.91 1012.92 1012.95 1013.03 1013.15 1013.30 1013.47 1013.63 1013.77 1013.90 1014.02
1004.82 1004.17 1003.67 1003.40 1003.34 1003.46 1003.68 1003.94 1004.19 1004.41 1004.63 1004.88 1005.21 1005.64 1006.19 1006.82 1007.49 1008.15 1008.75 1009.26 1009.68 1010.04 1010.38 1010.71 1011.06 1011.43 1011.80 1012.15 1012.43 1012.64 1012.77 1012.84 1012.88 1012.93 1013.00 1013.11 1013.26 1013.44 1013.61 1013.78 1013.92 1014.05 1014.18
1004.43 1003.82 1003.34 1003.07 1003.00 1003.09 1003.29 1003.54 1003.80 1004.05 1004.30 1004.60 1004.98 1005.45 1006.03 1006.68 1007.36 1008.03 1008.64 1009.17 1009.62 1010.01 1010.38 1010.73 1011.09 1011.45 1011.80 1012.11 1012.37 1012.56 1012.68 1012.78 1012.85 1012.94 1013.06 1013.22 1013.40 1013.58 1013.76 1013.93 1014.07 1014.20 1014.33
1003.82 1003.19 1002.69 1002.38 1002.28 1002.37 1002.59 1002.88 1003.22 1003.56 1003.92 1004.32 1004.77 1005.29 1005.89 1006.53 1007.19 1007.83 1008.42 1008.96 1009.43 1009.86 1010.26 1010.65 1011.03 1011.40 1011.75 1012.05 1012.29 1012.48 1012.62 1012.73 1012.85 1012.99 1013.15 1013.34 1013.53 1013.73 1013.90 1014.05 1014.18 1014.31 1014.44
1002.98 1002.25 1001.65 1001.26 1001.11 1001.19 1001.45 1001.85 1002.33 1002.84 1003.38 1003.94 1004.52 1005.13 1005.75 1006.38 1007.01 1007.60 1008.16 1008.67 1009.16 1009.62 1010.06 1010.50 1010.93 1011.33 1011.69 1012.00 1012.24 1012.44 1012.60 1012.75 1012.90 1013.07 1013.26 1013.46 1013.66 1013.83 1013.99 1014.12 1014.24 1014.36 1014.50
1001.94 1001.02 1000.24 999.70 999.47 999.53 999.85 1000.39 1001.07 1001.83 1002.62 1003.41 1004.18 1004.91 1005.60 1006.25 1006.84 1007.39 1007.90 1008.39 1008.88 1009.37 1009.86 1010.36 1010.84 1011.28 1011.68 1012.00 1012.26 1012.47 1012.65 1012.82 1012.99 1013.17 1013.37 1013.56 1013.74 1013.89 1014.01 1014.12 1014.23 1014.35 1014.51
1000.77 999.58 998.55 997.83 997.46 997.48 997.87 998.56 999.48 1000.53 1001.63 1002.72 1003.73 1004.65 1005.45 1006.13 1006.72 1007.24 1007.72 1008.18 1008.67 1009.18 1009.72 1010.27 1010.80 1011.29 1011.72 1012.08 1012.36 1012.58 1012.77 1012.94 1013.12 1013.29 1013.47 1013.64 1013.78 1013.89 1013.98 1014.06 1014.15 1014.28 1014.47
999.59 998.10 996.79 995.83 995.31 995.28 995.71 996.56 997.72 999.07 1000.51 1001.92 1003.22 1004.36 1005.31 1006.07 1006.68 1007.19 1007.64 1008.09 1008.57 1009.10 1009.67 1010.26 1010.84 1011.38 1011.85 1012.23 1012.52 1012.76 1012.94 1013.11 1013.26 1013.41 1013.55 1013.67 1013.76 1013.84 1013.89 1013.95 1014.05 1014.19 1014.40
998.57 996.79 995.21 994.02 993.35 993.24 993.71 994.68 996.05 997.69 999.44 1001.16 1002.74 1004.10 1005.22 1006.09 1006.75 1007.27 1007.71 1008.14 1008.62 1009.15 1009.74 1010.35 1010.97 1011.53 1012.02 1012.42 1012.73 1012.96 1013.13 1013.28 1013.40 1013.50 1013.60 1013.67 1013.72 1013.75 1013.79 1013.85 1013.95 1014.11 1014.35
997.88 995.87 994.08 992.71 991.90 991.73 992.20 993.25 994.78 996.63 998.62 1000.60 1002.41 1003.97 1005.23 1006.20 1006.92 1007.46 1007.90 1008.33 1008.79 1009.32 1009.91 1010.53 1011.16 1011.73 1012.24 1012.64 1012.95 1013.17 1013.33 1013.44 1013.52 1013.58 1013.62 1013.65 1013.66 1013.68 1013.71 1013.77 1013.90 1014.09 1014.35
997.64 995.52 993.62 992.15 991.26 991.03 991.49 992.57 994.17 996.13 998.27 1000.39 1002.34 1004.03 1005.39 1006.43 1007.19 1007.75 1008.20 1008.62 1009.07 1009.58 1010.16 1010.77 1011.39 1011.96 1012.46 1012.86 1013.16 1013.37 1013.50 1013.59 1013.63 1013.65 1013.65 1013.64 1013.63 1013.64 1013.68 1013.77 1013.93 1014.15 1014.44
997.95 995.85 993.97 992.50 991.58 991.32 991.75 992.80 994.39 996.34 998.49 1000.63 1002.61 1004.32 1005.71 1006.77 1007.55 1008.12 1008.57 1008.98 1009.42 1009.91 1010.46 1011.06 1011.65 1012.20 1012.68 1013.07 1013.36 1013.56 1013.68 1013.73 1013.75 1013.73 1013.70 1013.66 1013.65 1013.66 1013.72 1013.85 1014.05 1014.31 1014.61
998.80 996.86 995.11 993.73 992.87 992.61 992.99 993.97 995.45 997.28 999.31 1001.33 1003.22 1004.85 1006.18 1007.20 1007.96 1008.52 1008.96 1009.37 1009.80 1010.28 1010.81 1011.37 1011.93 1012.46 1012.92 1013.30 1013.58 1013.77 1013.87 1013.91 1013.90 1013.86 1013.81 1013.76 1013.73 1013.76 1013.85 1014.01 1014.24 1014.53 1014.86
1000.10 998.43 996.91 995.71 994.95 994.71 995.04 995.90 997.21 998.84 1000.63 1002.43 1004.10 1005.56 1006.75 1007.69 1008.39 1008.93 1009.37 1009.78 1010.21 1010.67 1011.18 1011.71 1012.24 1012.74 1013.18 1013.55 1013.83 1014.02 1014.13 1014.17 1014.14 1014.09 1014.01 1013.95 1013.92 1013.94 1014.05 1014.23 1014.49 1014.80 1015.13
1001.70 1000.35 999.12 998.14 997.52 997.34 997.62 998.34 999.44 1000.79 1002.28 1003.77 1005.16 1006.38 1007.39 1008.19 1008.82 1009.33 1009.77 1010.18 1010.62 1011.09 1011.58 1012.09 1012.59 1013.07 1013.50 1013.86 1014.14 1014.35 1014.47 1014.52 1014.50 1014.44 1014.35 1014.26 1014.21 1014.22 1014.31 1014.50 1014.76 1015.07 1015.40
1003.41 1002.39 1001.45 1000.70 1000.24 1000.12 1000.36 1000.94 1001.81 1002.87 1004.03 1005.19 1006.27 1007.22 1008.02 1008.68 1009.23 1009.70 1010.15 1010.59 1011.05 1011.53 1012.02 1012.51 1012.99 1013.45 1013.87 1014.24 1014.54 1014.78 1014.94 1015.01 1015.01 1014.94 1014.83 1014.72 1014.63 1014.60 1014.65 1014.80 1015.03 1015.32 1015.64
1005.03 1004.29 1003.61 1003.08 1002.76 1002.70 1002.91 1003.37 1004.04 1004.84 1005.70 1006.54 1007.31 1008.00 1008.61 1009.13 1009.61 1010.07 1010.53 1011.01 1011.49 1011.99 1012.48 1012.97 1013.43 1013.88 1014.30 1014.68 1015.02 1015.30 1015.51 1015.62 1015.65 1015.59 1015.47 1015.32 1015.17 1015.08 1015.07 1015.15 1015.32 1015.55 1015.82
1006.43 1005.91 1005.43 1005.05 1004.85 1004.84 1005.04 1005.42 1005.93 1006.52 1007.12 1007.70 1008.23 1008.70 1009.14 1009.56 1009.98 1010.44 1010.92 1011.43 1011.95 1012.47 1012.97 1013.44 1013.90 1014.33 1014.75 1015.16 1015.54 1015.88 1016.14 1016.32 1016.40 1016.36 1016.23 1016.05 1015.85 1015.68 1015.58 1015.56 1015.64 1015.79 1016.00
1007.54 1007.16 1006.80 1006.54 1006.42 1006.46 1006.66 1006.99 1007.40 1007.84 1008.27 1008.65 1008.99 1009.31 1009.62 1009.96 1010.36 1010.82 1011.33 1011.87 1012.42 1012.95 1013.45 1013.91 1014.34 1014.76 1015.19 1015.62 1016.05 1016.45 1016.79 1017.05 1017.19 1017.20 1017.09 1016.89 1016.64 1016.39 1016.19 1016.07 1016.04 1016.09 1016.20
1008.37 1008.05 1007.75 1007.55 1007.48 1007.57 1007.78 1008.10 1008.46 1008.83 1009.15 1009.42 1009.64 1009.85 1010.08 1010.37 1010.75 1011.21 1011.74 1012.31 1012.87 1013.40 1013.89 1014.33 1014.73 1015.14 1015.56 1016.01 1016.48 1016.95 1017.38 1017.73 1017.95 1018.03 1017.96 1017.77 1017.50 1017.20 1016.91 1016.69 1016.55 1016.49 1016.51
1008.96 1008.66 1008.38 1008.21 1008.17 1008.29 1008.53 1008.87 1009.23 1009.57 1009.84 1010.05 1010.21 1010.35 1010.54 1010.80 1011.16 1011.62 1012.16 1012.73 1013.29 1013.81 1014.27 1014.67 1015.04 1015.41 1015.81 1016.27 1016.78 1017.31 1017.83 1018.27 1018.59 1018.76 1018.76 1018.61 1018.36 1018.04 1017.71 1017.41 1017.18 1017.03 1016.94
1009.40 1009.09 1008.82 1008.65 1008.63 1008.78 1009.06 1009.43 1009.81 1010.16 1010.43 1010.61 1010.74 1010.85 1011.00 1011.24 1011.58 1012.03 1012.56 1013.12 1013.66 1014.14 1014.55 1014.91 1015.22 1015.55 1015.93 1016.38 1016.91 1017.49 1018.08 1018.61 1019.04 1019.31 1019.41 1019.34 1019.14 1018.85 1018.52 1018.20 1017.91 1017.68 1017.51
1009.73 1009.44 1009.17 1009.01 1009.02 1009.19 1009.51 1009.91 1010.33 1010.69 1010.97 1011.15 1011.26 1011.35 1011.48 1011.68 1012.00 1012.42 1012.91 1013.44 1013.94 1014.38 1014.74 1015.03 1015.29 1015.57 1015.90 1016.33 1016.86 1017.46 1018.10 1018.71 1019.23 1019.61 1019.82 1019.86 1019.76 1019.54 1019.26 1018.96 1018.67 1018.41 1018.18
1010.02 1009.75 1009.51 1009.38 1009.40 1009.61 1009.96 1010.39 1010.83 1011.22 1011.50 1011.68 1011.77 1011.84 1011.93 1012.10 1012.37 1012.75 1013.20 1013.68 1014.13 1014.52 1014.83 1015.06 1015.26 1015.47 1015.75 1016.14 1016.64 1017.24 1017.90 1018.55 1019.15 1019.62 1019.94 1020.11 1020.13 1020.02 1019.84 1019.61 1019.37 1019.12 1018.89
1010.27 1010.06 1009.86 1009.76 1009.83 1010.06 1010.43 1010.88 1011.33 1011.72 1012.01 1012.17 1012.24 1012.28 1012.33 1012.46 1012.69 1013.02 1013.42 1013.85 1014.24 1014.58 1014.83 1015.00 1015.14 1015.30 1015.52 1015.85 1016.31 1016.87 1017.51 1018.18 1018.81 1019.35 1019.77 1020.06 1020.21 1020.24 1020.19 1020.08 1019.93 1019.75 1019.55
1010.47 1010.33 1010.20 1010.16 1010.26 1010.51 1010.90 1011.35 1011.80 1012.18 1012.45 1012.59 1012.64 1012.65 1012.67 1012.75 1012.93 1013.21 1013.56 1013.94 1014.28 1014.57 1014.77 1014.90 1014.99 1015.09 1015.25 1015.52 1015.91 1016.41 1017.01 1017.65 1018.28 1018.86 1019.35 1019.73 1020.01 1020.19 1020.29 1020.32 1020.29 1020.21 1020.09
Thickness
5802 5806 5808 5808 5808 5808 5808 5808 5808 5808 5807 5807 5807 5807 5806 5805 5804 5803 5802 5801 5799 5798 5797 5796 5795 5794 5793 5791 5790 5788 5787 5786 5784 5782 5781 5780 5778 5777 5776 5774 5772 5771 5770
5808 5808 5808 5808 5808 5808 5808 5808 5808 5807 5807 5807 5807 5807 5806 5805 5804 5803 5802 5801 5799 5798 5797 5796 5794 5793 5792 5791 5790 5788 5786 5785 5784 5782 5781 5780 5778 5777 5775 5774 5772 5771 5769
5809 5809 5808 5808 5808 5808 5807 5807 5807 5806 5806 5806 5807 5806 5806 5805 5804 5803 5801 5800 5799 5798 5797 5796 5794 5793 5792 5791 5789 5788 5786 5784 5783 5782 5781 5779 5778 5777 5775 5774 5772 5771 5769
5810 5810 5809 5808 5808 5807 5807 5807 5807 5806 5805 5805 5805 5805 5805 5804 5803 5802 5801 5800 5799 5798 5797 5795 5794 5793 5791 5790 5789 5788 5786 5784 5783 5782 5780 5779 5777 5776 5775 5774 5773 5771 5769
5811 5810 5810 5809 5808 5807 5807 5806 5806 5806 5805 5805 5805 5805 5804 5803 5802 5801 5800 5799 5798 5797 5796 5795 5794 5792 5791 5790 5789 5787 5786 5784 5783 5781 5779 5778 5777 5776 5775 5774 5772 5772 5770
5811 5811 5810 5809 5809 5809 5808 5807 5806 5805 5805 5804 5805 5804 5804 5803 5801 5800 5799 5798 5797 5797 5796 5794 5793 5792 5791 5790 5789 5787 5785 5784 5783 5781 5779 5778 5777 5776 5775 5774 5772 5772 5770
5811 5811 5810 5810 5810 5811 5810 5808 5807 5806 5805 5804 5804 5804 5803 5802 5801 5800 5799 5798 5797 5796 5795 5794 5793 5792 5791 5789 5788 5786 5785 5783 5782 5780 5779 5777 5776 5776 5775 5774 5772 5771 5770
5813 5811 5810 5810 5810 5811 5810 5809 5807 5805 5804 5804 5803 5802 5802 5801 5800 5799 5798 5797 5796 5795 5794 5793 5793 5791 5790 5788 5787 5786 5784 5783 5781 5780 5778 5777 5776 5775 5774 5773 5771 5770 5768
5813 5811 5810 5810 5810 5809 5809 5808 5806 5805 5804 5803 5802 5801 5800 5799 5799 5798 5797 5796 5795 5795 5794 5793 5792 5791 5789 5788 5786 5785 5784 5782 5780 5779 5778 5777 5776 5775 5773 5772 5771 5769 5767
5812 5811 5810 5810 5810 5808 5808 5807 5806 5804 5803 5802 5801 5800 5799 5798 5798 5797 5796 5795 5794 5793 5793 5793 5792 5790 5789 5787 5786 5784 5782 5780 5780 5779 5777 5776 5775 5774 5773 5771 5770 5768 5766
5809 5809 5809 5809 5808 5808 5807 5806 5805 5803 5802 5801 5799 5799 5798 5797 5797 5796 5795 5794 5793 5793 5792 5792 5791 5790 5789 5787 5786 5783 5781 5779 5779 5778 5777 5776 5774 5773 5772 5771 5769 5767 5765
5804 5806 5808 5808 5807 5806 5806 5805 5803 5802 5800 5799 5798 5797 5796 5796 5796 5795 5794 5793 5792 5792 5791 5791 5791 5791 5789 5787 5785 5783 5780 5778 5777 5776 5776 5775 5774 5773 5772 5770 5768 5766 5764
5806 5806 5807 5807 5806 5805 5805 5804 5802 5801 5799 5798 5797 5796 5795 5794 5794 5792 5791 5790 5790 5789 5789 5790 5790 5790 5789 5786 5783 5781 5779 5777 5776 5775 5774 5774 5773 5772 5770 5768 5767 5765 5762
5806 5806 5807 5807 5806 5805 5804 5803 5802 5800 5798 5796 5795 5795 5794 5792 5791 5789 5788 5787 5787 5787 5787 5787 5787 5787 5785 5784 5781 5779 5777 5776 5775 5774 5773 5772 5771 5769 5768 5766 5765 5763 5761
5806 5806 5807 5807 5806 5805 5803 5803 5801 5799 5797 5796 5795 5794 5793 5791 5789 5787 5786 5785 5784 5784 5785 5785 5784 5783 5782 5780 5778 5777 5775 5774 5773 5773 5772 5770 5769 5768 5766 5764 5763 5761 5759
5806 5807 5807 5807 5806 5805 5803 5801 5800 5798 5797 5795 5794 5792 5792 5790 5788 5786 5784 5783 5782 5782 5782 5782 5781 5780 5779 5777 5775 5774 5773 5772 5771 5771 5769 5768 5767 5765 5764 5762 5760 5759 5757
5808 5808 5807 5807 5806 5805 5803 5801 5800 5798 5796 5794 5792 5791 5790 5789 5786 5784 5782 5780 5780 5780 5779 5779 5778 5777 5775 5774 5771 5770 5770 5770 5768 5767 5767 5765 5764 5763 5762 5760 5759 5757 5756
5810 5808 5807 5808 5805 5804 5802 5800 5799 5797 5795 5793 5791 5790 5788 5787 5785 5782 5780 5778 5778 5778 5777 5775 5774 5772 5770 5769 5767 5767 5767 5766 5765 5765 5764 5762 5761 5760 5759 5758 5757 5755 5755
5812 5809 5806 5806 5803 5802 5800 5799 5797 5795 5793 5791 5789 5787 5786 5785 5783 5781 5778 5777 5777 5776 5774 5773 5770 5769 5766 5765 5764 5764 5763 5762 5762 5762 5760 5759 5759 5758 5757 5756 5754 5753 5753
5812 5809 5807 5805 5802 5801 5799 5796 5794 5792 5790 5788 5787 5785 5784 5783 5781 5779 5777 5775 5774 5773 5771 5769 5767 5766 5764 5763 5763 5760 5759 5759 5758 5758 5757 5756 5755 5755 5753 5752 5751 5750 5750
5810 5807 5805 5802 5800 5798 5795 5792 5788 5786 5785 5785 5784 5783 5782 5780 5778 5777 5775 5773 5771 5769 5767 5766 5765 5762 5760 5760 5756 5752 5753 5755 5755 5754 5754 5753 5752 5751 5750 5749 5748 5748 5747
5809 5807 5805 5802 5800 5798 5796 5793 5790 5787 5784 5783 5782 5780 5779 5778 5776 5774 5771 5769 5768 5766 5763 5762 5761 5758 5756 5756 5751 5746 5741 5742 5747 5750 5750 5749 5749 5749 5748 5747 5746 5745 5745
5808 5806 5805 5802 5799 5797 5795 5792 5789 5785 5782 5779 5777 5776 5775 5775 5773 5771 5769 5767 5764 5762 5759 5759 5758 5755 5751 5751 5751 5745 5736 5732 5737 5742 5745 5746 5746 5746 5746 5745 5744 5743 5742
5808 5807 5804 5801 5798 5796 5793 5789 5784 5779 5774 5773 5773 5772 5772 5771 5770 5768 5766 5764 5761 5759 5757 5756 5755 5753 5751 5747 5747 5747 5745 5741 5734 5732 5737 5741 5743 5743 5743 5743 5742 5741 5740
5808 5805 5802 5799 5796 5794 5791 5787 5783 5778 5775 5773 5771 5769 5767 5767 5766 5765 5763 5761 5758 5756 5754 5753 5752 5750 5749 5746 5744 5743 5741 5739 5737 5731 5728 5732 5736 5738 5739 5739 5738 5738 5737
5806 5803 5800 5796 5793 5791 5788 5785 5781 5776 5773 5769 5766 5764 5762 5762 5761 5760 5759 5757 5755 5753 5751 5750 5749 5747 5746 5745 5743 5741 5738 5735 5732 5730 5727 5726 5728 5732 5735 5735 5735 5735 5735